GW1306 Weather Reports


time (UTC)temp
F
wind
direction
speed
knots
gust
knots
rain 1hr
in
rain 24hr
in
rain mn
in
humidity
%
barometer
mb
20260510150124 72 81 0.0 0.0 0.00 0.00 0.00 62 1016.2
20260510145621 72 218 0.0 0.9 0.00 0.00 0.00 63 1016.2
20260510145117 71 91 0.0 0.0 0.00 0.00 0.00 65 1015.9
20260510144613 70 78 0.0 0.0 0.00 0.00 0.00 66 1016.1
20260510144109 70 74 0.0 0.0 0.00 0.00 0.00 72 1015.9
20260510143605 70 81 0.0 0.9 0.00 0.00 0.00 71 1015.9
20260510143102 69 144 0.0 0.9 0.00 0.00 0.00 71 1016.0
20260510142558 69 72 0.0 0.0 0.00 0.00 0.00 72 1015.9
20260510142055 70 76 0.0 0.0 0.00 0.00 0.00 69 1015.7
20260510141552 70 78 0.0 0.0 0.00 0.00 0.00 68 1015.8
20260510141050 69 74 0.0 0.0 0.00 0.00 0.00 69 1015.8
20260510140546 68 124 0.0 0.9 0.00 0.00 0.00 71 1016.0
20260510140045 68 233 0.0 0.9 0.00 0.00 0.00 71 1016.2
20260510135541 68 80 0.0 0.0 0.00 0.00 0.00 72 1016.0
20260510135038 67 81 0.9 0.9 0.00 0.00 0.00 72 1016.1
20260510134535 67 81 0.0 0.0 0.00 0.00 0.00 73 1016.0
20260510134032 66 72 0.0 0.0 0.00 0.00 0.00 73 1016.1
20260510133527 66 85 0.0 0.0 0.00 0.00 0.00 78 1016.0
20260510133024 66 85 0.0 0.0 0.00 0.00 0.00 79 1015.9
20260510132521 65 114 0.0 0.0 0.00 0.00 0.00 80 1015.8
20260510132017 66 90 0.0 0.0 0.00 0.00 0.00 78 1015.8
20260510131515 67 90 0.0 0.0 0.00 0.00 0.00 76 1016.1
20260510131012 67 91 0.0 0.0 0.00 0.00 0.00 76 1016.1
20260510130508 67 91 0.0 0.0 0.00 0.00 0.00 78 1016.0
20260510130006 68 89 0.0 0.9 0.00 0.00 0.00 75 1016.1
20260510125502 62 134 0.0 0.0 0.00 0.00 0.00 85 1016.3
20260510124958 61 135 0.0 0.0 0.00 0.00 0.00 86 1016.4
20260510124455 60 136 0.0 0.0 0.00 0.00 0.00 87 1016.3
20260510123952 60 136 0.0 0.0 0.00 0.00 0.00 90 1016.2
20260510123447 59 137 0.0 0.0 0.00 0.00 0.00 92 1016.4
20260510122944 58 137 0.0 0.0 0.00 0.00 0.00 92 1016.4
20260510122439 58 136 0.0 0.0 0.00 0.00 0.00 93 1016.4
20260510121935 57 136 0.0 0.0 0.00 0.00 0.00 94 1016.4
20260510121433 57 136 0.0 0.0 0.00 0.00 0.00 94 1016.5
20260510120930 57 136 0.0 0.0 0.00 0.00 0.00 94 1016.3
20260510120427 56 137 0.0 0.0 0.00 0.00 0.00 94 1016.1
20260510115923 56 137 0.0 0.0 0.00 0.00 0.00 95 1016.1
20260510115421 55 134 0.0 0.0 0.00 0.00 0.00 97 1016.0
20260510114916 55 131 0.0 0.0 0.00 0.00 0.00 97 1016.1
20260510114413 54 126 0.0 0.0 0.00 0.00 0.00 97 1015.9
20260510113908 54 142 0.0 0.0 0.00 0.00 0.00 98 1016.0
20260510113404 54 122 0.0 0.0 0.00 0.00 0.00 99 1015.7
20260510112902 53 121 0.0 0.0 0.00 0.00 0.00 98 1015.5
20260510112359 53 121 0.0 0.0 0.00 0.00 0.00 98 1015.5
20260510111855 52 123 0.0 0.0 0.00 0.00 0.00 98 1015.6
20260510111351 52 124 0.0 0.0 0.00 0.00 0.00 98 1015.7
20260510110846 52 123 0.0 0.0 0.00 0.00 0.00 98 1015.4
20260510110343 51 123 0.0 0.0 0.00 0.00 0.00 98 1015.4
20260510105840 51 123 0.0 0.0 0.00 0.00 0.00 98 1015.2
20260510105339 51 123 0.0 0.0 0.00 0.00 0.00 98 1015.3
20260510104835 51 140 0.0 0.0 0.00 0.00 0.00 98 1015.2
20260510104333 51 115 0.0 0.0 0.00 0.00 0.00 98 1014.7
20260510103829 51 111 0.0 0.0 0.00 0.00 0.00 98 1014.7
20260510103326 51 111 0.0 0.0 0.00 0.00 0.00 98 1014.5
20260510102821 50 110 0.0 0.0 0.00 0.00 0.00 98 1014.6
20260510102317 50 109 0.0 0.0 0.00 0.00 0.00 98 1014.5
20260510101815 51 121 0.0 0.0 0.00 0.00 0.00 98 1014.5
20260510101313 51 121 0.0 0.0 0.00 0.00 0.00 98 1014.4
20260510100808 51 103 0.0 0.0 0.00 0.00 0.00 98 1014.5
20260510100307 50 106 0.0 0.0 0.00 0.00 0.00 98 1014.5
20260510095802 51 106 0.0 0.0 0.00 0.00 0.00 98 1014.5
20260510095257 51 105 0.0 0.0 0.00 0.00 0.00 98 1014.5
20260510094756 51 106 0.0 0.0 0.00 0.00 0.00 98 1014.5
20260510094252 51 106 0.0 0.0 0.00 0.00 0.00 98 1014.6
20260510093748 51 108 0.0 0.0 0.00 0.00 0.00 98 1014.5
20260510093245 51 107 0.0 0.0 0.00 0.00 0.00 98 1014.5
20260510092741 51 108 0.0 0.0 0.00 0.00 0.00 98 1014.5
20260510092237 52 109 0.0 0.0 0.00 0.00 0.00 98 1014.4
20260510091733 51 132 0.0 0.0 0.00 0.00 0.00 98 1014.5
20260510091231 51 149 0.0 0.0 0.00 0.00 0.00 98 1014.3
20260510090726 51 147 0.0 0.0 0.00 0.00 0.00 98 1014.4
20260510090224 51 146 0.0 0.0 0.00 0.00 0.00 98 1014.4
20260510085719 51 146 0.0 0.0 0.00 0.00 0.00 98 1014.3
20260510085214 51 144 0.0 0.0 0.00 0.00 0.00 98 1014.3
20260510084710 52 144 0.0 0.0 0.00 0.00 0.00 98 1014.2
20260510084207 52 144 0.0 0.0 0.00 0.00 0.00 98 1014.0
20260510083703 52 144 0.0 0.0 0.00 0.00 0.00 98 1013.9
20260510083156 51 145 0.0 0.0 0.00 0.00 0.00 98 1013.8
20260510082651 52 144 0.0 0.0 0.00 0.00 0.00 97 1013.8
20260510082147 52 149 0.9 0.9 0.00 0.00 0.00 97 1013.8
20260510081642 52 142 0.0 0.0 0.00 0.00 0.00 97 1013.8
20260510081138 52 144 0.0 0.9 0.00 0.00 0.00 97 1013.7
20260510080637 52 138 0.0 0.0 0.00 0.00 0.00 97 1013.6
20260510080134 52 138 0.0 0.0 0.00 0.00 0.00 97 1013.4
20260510075631 52 136 0.0 0.0 0.00 0.00 0.00 97 1013.4
20260510075129 52 133 0.0 0.0 0.00 0.00 0.00 97 1013.5
20260510074625 52 131 0.0 0.0 0.00 0.00 0.00 97 1013.2
20260510074121 52 131 0.0 0.0 0.00 0.00 0.00 97 1013.3
20260510073617 52 131 0.0 0.0 0.00 0.00 0.00 97 1013.3
20260510073114 52 140 0.0 0.9 0.00 0.00 0.00 97 1013.3
20260510072611 52 124 0.0 0.0 0.00 0.00 0.00 97 1013.2
20260510072107 53 123 0.0 0.0 0.00 0.00 0.00 97 1013.3
20260510071603 53 124 0.0 0.0 0.00 0.00 0.00 97 1013.3
20260510071101 53 121 0.0 0.0 0.00 0.00 0.00 96 1013.3
20260510070557 53 117 0.0 0.0 0.00 0.00 0.00 96 1013.2
20260510070055 53 115 0.0 0.0 0.00 0.00 0.00 96 1013.1
20260510065551 53 115 0.0 0.0 0.00 0.00 0.00 96 1013.1
20260510065047 53 115 0.0 0.0 0.00 0.00 0.00 96 1013.0
20260510064543 53 115 0.0 0.0 0.00 0.00 0.00 96 1013.0
20260510064040 53 115 0.0 0.0 0.00 0.00 0.00 96 1012.8
20260510063537 53 116 0.0 0.0 0.00 0.00 0.00 96 1012.9
20260510063035 53 114 0.0 0.0 0.00 0.00 0.00 96 1013.2
20260510062530 54 125 0.0 0.0 0.00 0.00 0.00 96 1013.0
20260510062026 54 125 0.0 0.0 0.00 0.00 0.00 96 1012.9
20260510061522 54 125 0.0 0.0 0.00 0.00 0.00 96 1012.9
20260510061019 54 125 0.0 0.0 0.00 0.00 0.00 96 1013.0
20260510060515 54 127 0.0 0.0 0.00 0.00 0.00 96 1013.0
20260510060012 54 127 0.0 0.9 0.00 0.00 0.00 96 1012.9
20260510055508 54 87 0.0 0.0 0.00 0.00 0.00 96 1013.0
20260510055006 54 87 0.0 0.0 0.00 0.00 0.00 96 1013.1
20260510054501 55 87 0.0 0.0 0.00 0.00 0.00 96 1013.1
20260510053956 55 84 0.0 0.0 0.00 0.00 0.00 95 1013.0
20260510053451 55 84 0.0 0.0 0.00 0.00 0.00 95 1013.3
20260510052948 55 84 0.0 0.0 0.00 0.00 0.00 95 1013.0
20260510052444 55 84 0.0 0.0 0.00 0.00 0.00 95 1013.3
20260510051941 55 84 0.0 0.0 0.00 0.00 0.00 94 1013.0
20260510051437 55 84 0.0 0.0 0.00 0.00 0.00 94 1013.1
20260510050933 55 84 0.0 0.0 0.00 0.00 0.00 94 1013.2
20260510050430 55 84 0.0 0.0 0.00 0.00 0.00 94 1013.1
20260510045928 55 84 0.0 0.0 0.00 0.00 0.00 94 1013.2
20260510045425 56 84 0.0 0.0 0.00 0.00 0.00 94 1013.2
20260510044921 56 84 0.0 0.0 0.00 0.00 0.00 94 1013.2
20260510044418 56 84 0.0 0.0 0.00 0.00 0.00 94 1013.3
20260510043915 56 84 0.0 0.0 0.00 0.00 0.00 94 1013.4
20260510043411 57 84 0.0 0.0 0.00 0.00 0.00 94 1013.2
20260510042909 57 84 0.0 0.0 0.00 0.00 0.00 94 1013.4
20260510042405 57 84 0.0 0.9 0.00 0.00 0.00 94 1013.3
20260510041901 57 84 0.0 0.0 0.00 0.00 0.00 93 1013.3
20260510041358 57 77 0.0 0.0 0.00 0.00 0.00 93 1013.1
20260510040855 57 77 0.0 0.0 0.00 0.00 0.00 92 1013.2
20260510040352 57 77 0.0 0.0 0.00 0.00 0.00 92 1012.9
20260510035848 57 77 0.0 0.0 0.00 0.00 0.00 92 1013.1
20260510035344 57 77 0.0 0.0 0.00 0.00 0.00 92 1013.2
20260510034839 57 77 0.0 0.0 0.00 0.00 0.00 93 1013.1
20260510034338 57 78 0.0 0.0 0.00 0.00 0.00 92 1013.1
20260510033834 57 77 0.0 0.0 0.00 0.00 0.00 92 1012.9
20260510033330 58 77 0.0 0.0 0.00 0.00 0.00 92 1013.1
20260510032827 58 78 0.0 0.0 0.00 0.00 0.00 91 1013.0
20260510032324 58 78 0.0 0.0 0.00 0.00 0.00 91 1013.3
20260510031819 58 77 0.0 0.0 0.00 0.00 0.00 91 1013.0
20260510031315 58 77 0.0 0.0 0.00 0.00 0.00 91 1013.0
20260510030809 58 77 0.0 0.0 0.00 0.00 0.00 90 1012.9
20260510030306 58 78 0.0 0.0 0.00 0.00 0.00 90 1012.8
20260510025804 58 78 0.0 0.0 0.00 0.00 0.00 89 1012.7
20260510025301 59 77 0.0 0.0 0.00 0.00 0.00 89 1012.6
20260510024757 59 78 0.0 0.0 0.00 0.00 0.00 88 1012.7
20260510024254 59 77 0.0 0.0 0.00 0.00 0.00 88 1012.9
20260510023750 60 77 0.0 0.0 0.00 0.00 0.00 87 1012.9
20260510023247 60 77 0.0 0.0 0.00 0.00 0.00 87 1012.9
20260510022743 60 77 0.0 0.0 0.00 0.00 0.00 87 1013.0
20260510022244 60 77 0.0 0.0 0.00 0.00 0.00 86 1012.8
20260510021743 60 77 0.0 0.0 0.00 0.00 0.00 86 1012.8
20260510021241 60 77 0.0 0.0 0.00 0.00 0.00 86 1012.9
20260510020736 60 77 0.0 0.0 0.00 0.00 0.00 85 1012.7
20260510020237 60 77 0.0 0.0 0.00 0.00 0.00 85 1012.9
20260510015733 61 77 0.0 0.0 0.00 0.00 0.00 85 1012.7
20260510015230 61 77 0.0 0.0 0.00 0.00 0.00 85 1012.8
20260510014724 61 77 0.0 0.0 0.00 0.00 0.00 85 1012.7
20260510014222 61 78 0.0 0.0 0.00 0.00 0.00 86 1012.5
20260510013718 61 78 0.0 0.0 0.00 0.00 0.00 87 1012.5
20260510013213 61 77 0.0 0.0 0.00 0.00 0.00 87 1012.6
20260510012708 61 78 0.0 0.0 0.00 0.00 0.00 87 1012.5
20260510012203 62 78 0.0 0.0 0.00 0.00 0.00 87 1012.4
20260510011658 62 78 0.0 0.0 0.00 0.00 0.00 87 1012.3
20260510011149 62 77 0.0 0.0 0.00 0.00 0.00 86 1012.2
20260510010644 62 78 0.0 0.0 0.00 0.00 0.00 86 1012.4
20260510010142 62 78 0.0 0.0 0.00 0.00 0.00 86 1012.4
20260510005638 62 78 0.0 0.0 0.00 0.00 0.00 85 1012.3
20260510005135 62 78 0.0 0.0 0.00 0.00 0.00 84 1012.3
20260510004633 62 78 0.0 0.0 0.00 0.00 0.00 83 1012.2
20260510004131 62 78 0.0 0.0 0.00 0.00 0.00 83 1012.2
20260510003628 62 78 0.0 0.0 0.00 0.00 0.00 82 1011.9
20260510003124 62 78 0.0 0.0 0.00 0.00 0.00 82 1011.9
20260510002624 63 78 0.0 0.0 0.00 0.00 0.00 81 1011.9
20260510002121 63 78 0.0 0.0 0.00 0.00 0.00 81 1011.9
20260510001618 63 78 0.0 0.0 0.00 0.00 0.00 80 1012.1
20260510001117 63 78 0.0 0.0 0.00 0.00 0.00 80 1011.8
20260510000616 63 78 0.0 0.0 0.00 0.00 0.00 79 1011.8
20260510000114 64 78 0.0 0.0 0.00 0.00 0.00 78 1012.0
20260509235610 64 78 0.0 0.0 0.00 0.00 0.00 78 1012.0
20260509235107 64 78 0.0 0.0 0.00 0.00 0.00 78 1011.8
20260509234603 64 78 0.0 0.0 0.00 0.00 0.00 77 1011.7
20260509234101 65 78 0.0 0.0 0.00 0.00 0.00 75 1011.7
20260509233558 65 78 0.0 0.0 0.00 0.00 0.00 74 1011.6
20260509233055 65 75 0.0 0.0 0.00 0.00 0.00 74 1011.5
20260509232552 66 75 0.0 0.0 0.00 0.00 0.00 74 1011.4
20260509232049 66 75 0.0 0.0 0.00 0.00 0.00 74 1011.6
20260509231545 66 75 0.0 0.0 0.00 0.00 0.00 73 1011.5
20260509231043 66 75 0.0 0.0 0.00 0.00 0.00 73 1011.3
20260509230539 66 75 0.0 0.0 0.00 0.00 0.00 74 1011.3
20260509230037 66 75 0.0 0.0 0.00 0.00 0.00 73 1011.2
20260509225532 66 75 0.0 0.0 0.00 0.00 0.00 72 1011.3
20260509225028 66 75 0.0 0.0 0.00 0.00 0.00 73 1011.3
20260509224524 66 75 0.0 0.0 0.00 0.00 0.00 73 1011.6
20260509224020 66 75 0.0 0.9 0.00 0.00 0.00 73 1011.6
20260509223517 66 65 0.0 0.9 0.00 0.00 0.00 73 1011.6
20260509223016 66 65 0.0 0.0 0.00 0.00 0.00 72 1011.7
20260509222511 66 65 0.0 0.0 0.00 0.00 0.00 72 1011.6
20260509222007 66 65 0.0 0.0 0.00 0.00 0.00 70 1011.6
20260509221503 66 65 0.9 0.9 0.00 0.00 0.00 71 1011.5
20260509220959 67 65 0.0 0.9 0.00 0.00 0.00 71 1011.5
20260509220455 67 65 0.9 0.9 0.00 0.00 0.00 71 1011.4
20260509215951 67 73 0.0 0.9 0.00 0.00 0.00 69 1011.4
20260509215447 67 73 0.0 0.9 0.00 0.00 0.00 70 1011.5
20260509214945 68 74 0.9 0.9 0.00 0.00 0.00 70 1011.6
20260509214442 68 74 0.9 0.9 0.00 0.00 0.00 70 1011.7
20260509213938 68 75 0.0 0.9 0.00 0.00 0.00 71 1011.6
20260509213434 68 75 0.0 0.9 0.00 0.00 0.00 69 1011.4
20260509212931 68 75 0.9 0.9 0.00 0.00 0.00 70 1011.5
20260509212429 68 75 0.0 0.0 0.00 0.00 0.00 70 1011.5
20260509211925 68 75 0.0 0.0 0.00 0.00 0.00 72 1011.6
20260509211420 68 69 0.0 0.0 0.00 0.00 0.00 70 1011.3
20260509210917 68 69 0.0 0.9 0.00 0.00 0.00 70 1011.5
20260509210415 68 69 0.9 0.9 0.00 0.00 0.00 70 1011.5
20260509205910 68 69 0.9 0.9 0.00 0.00 0.00 71 1011.4
20260509205409 68 69 0.0 0.9 0.00 0.00 0.00 71 1011.5
20260509204906 68 69 0.9 0.9 0.00 0.00 0.00 71 1011.4
20260509204402 68 69 0.0 0.0 0.00 0.00 0.00 71 1011.2
20260509203859 67 69 0.0 0.0 0.00 0.00 0.00 72 1011.2
20260509203355 67 68 0.0 0.0 0.00 0.00 0.00 74 1011.2
20260509202852 67 68 0.0 0.9 0.00 0.00 0.00 73 1011.4
20260509202348 68 69 0.0 0.9 0.00 0.00 0.00 71 1011.4
20260509201843 67 69 0.9 0.9 0.00 0.00 0.00 72 1011.6
20260509201339 67 69 0.0 0.9 0.00 0.00 0.00 73 1011.9
20260509200835 67 69 0.9 0.9 0.00 0.00 0.00 72 1011.8
20260509200326 67 69 0.0 0.9 0.00 0.00 0.00 72 1011.9
20260509195823 67 69 0.9 0.9 0.00 0.00 0.00 72 1011.9
20260509195322 66 70 0.0 0.9 0.00 0.00 0.00 74 1012.2
20260509194822 66 70 0.9 0.9 0.00 0.00 0.00 77 1012.0
20260509194318 65 70 0.0 0.9 0.00 0.00 0.00 77 1012.2
20260509193815 66 70 0.0 0.0 0.00 0.00 0.00 74 1012.3
20260509193315 66 70 0.0 0.0 0.00 0.00 0.00 77 1012.1
20260509192811 66 70 0.0 0.0 0.00 0.00 0.00 79 1012.4
20260509192307 65 70 0.9 0.9 0.00 0.00 0.00 79 1012.3
20260509191802 65 71 0.0 0.0 0.00 0.00 0.00 79 1012.4
20260509191259 65 71 0.0 0.0 0.00 0.00 0.00 80 1012.3
20260509190755 64 71 0.0 0.0 0.00 0.00 0.00 82 1012.7
20260509190252 63 71 0.9 0.9 0.00 0.00 0.00 84 1012.6
20260509185749 63 72 0.0 0.0 0.00 0.00 0.00 81 1012.8
20260509185245 64 72 0.0 0.0 0.00 0.00 0.00 81 1012.8
20260509184743 64 72 0.0 0.0 0.00 0.00 0.00 78 1012.7
20260509184241 64 72 0.0 0.0 0.00 0.00 0.00 79 1012.6
20260509183737 64 72 0.0 0.0 0.00 0.00 0.00 79 1012.6
20260509183232 65 72 0.0 0.0 0.00 0.00 0.00 77 1012.8
20260509182727 65 72 0.0 0.0 0.00 0.00 0.00 77 1012.8
20260509182226 65 72 0.0 0.0 0.00 0.00 0.00 76 1013.0
20260509181723 64 72 0.0 0.0 0.00 0.00 0.00 75 1013.1
20260509181220 64 72 0.0 0.0 0.00 0.00 0.00 77 1013.2
20260509180717 64 72 0.0 0.0 0.00 0.00 0.00 76 1013.1
20260509180213 64 71 0.0 0.0 0.00 0.00 0.00 75 1013.2
20260509175710 64 71 0.0 0.0 0.00 0.00 0.00 74 1013.4
20260509175206 64 71 0.0 0.0 0.00 0.00 0.00 77 1013.1
20260509174702 63 71 0.0 0.0 0.00 0.00 0.00 77 1013.2
20260509174157 63 71 0.0 0.0 0.00 0.00 0.00 76 1013.3
20260509173654 63 71 0.0 0.0 0.00 0.00 0.00 77 1013.3
20260509173150 63 71 0.0 0.9 0.00 0.00 0.00 77 1013.4
20260509172646 63 71 0.0 0.0 0.00 0.00 0.00 77 1013.3
20260509172142 63 71 0.0 0.0 0.00 0.00 0.00 78 1013.5
20260509171638 63 71 0.0 0.0 0.00 0.00 0.00 76 1013.4
20260509171134 63 71 0.9 0.9 0.00 0.00 0.00 75 1013.4
20260509170631 63 71 0.0 0.9 0.00 0.00 0.00 75 1013.3
20260509170127 63 71 0.0 0.9 0.00 0.00 0.00 75 1013.4
20260509165626 64 71 0.0 0.9 0.00 0.00 0.00 75 1013.2
20260509165122 64 71 0.0 0.0 0.00 0.00 0.00 75 1013.3
20260509164617 64 71 0.0 0.0 0.00 0.00 0.00 75 1013.1
20260509164114 64 71 0.0 0.9 0.00 0.00 0.00 73 1013.5
20260509163612 64 72 0.0 0.0 0.00 0.00 0.00 73 1013.5
20260509163107 64 71 0.0 0.0 0.00 0.00 0.00 71 1013.3
20260509162605 64 71 0.9 0.9 0.00 0.00 0.00 73 1013.4
20260509162100 64 72 0.0 0.9 0.00 0.00 0.00 71 1013.4
20260509161557 65 72 0.0 0.0 0.00 0.00 0.00 70 1013.6
20260509161056 65 72 0.0 0.0 0.00 0.00 0.00 70 1013.6
20260509160553 65 12 0.9 0.9 0.00 0.00 0.00 69 1013.5
20260509160043 66 80 0.0 0.0 0.00 0.00 0.00 68 1013.5
20260509155539 68 147 0.9 0.9 0.00 0.00 0.00 65 1013.6
20260509155035 68 261 0.0 0.0 0.00 0.00 0.00 63 1013.4
20260509154531 68 61 1.7 1.7 0.00 0.00 0.00 63 1013.5
20260509154030 68 65 0.9 0.9 0.00 0.00 0.00 63 1013.4
20260509153526 68 88 0.0 0.9 0.00 0.00 0.00 63 1013.6
20260509153023 67 107 0.9 0.9 0.00 0.00 0.00 66 1013.8
20260509152519 67 67 1.7 1.7 0.00 0.00 0.00 65 1013.6
20260509152015 66 233 0.9 0.9 0.00 0.00 0.00 67 1013.8
20260509151512 66 84 0.0 0.0 0.00 0.00 0.00 65 1014.0
20260509151010 65 283 0.0 0.0 0.00 0.00 0.00 67 1014.0
20260509150507 65 139 0.0 0.9 0.00 0.00 0.00 66 1014.2